Regional Weather Roundup
Issued by NWS Portland, ME

Home | Current Version | Previous Version | Text Only | Print | Product List | Glossary On
Versions: 1 2 3 4 5 6 7 8 9 10 11 12 13 14 15 16 17 18 19 20 21 22 23 24 25 26 27 28 29 30 31 32 33 34 35 36 37 38 39 40 41 42 43 44 45 46 47 48 49 50
000
ASUS41 KGYX 280410
RWRGYX
WEATHER ROUNDUP FOR MAINE AND NEW HAMPSHIRE
NATIONAL WEATHER SERVICE GRAY ME
1200 AM EDT THU MAY 28 2015

MEZ002-005-006-010-012-015-018-020-021-024-026-027-029-280500-
MAINE

CITY           SKY/WX    TMP DP  RH WIND       PRES   REMARKS
PORTLAND       CLOUDY    64  59  83 CALM      30.06R
SANFORD        CLOUDY    73  61  64 SW8       30.07S
BAR HARBOR     CLOUDY    59  57  94 S12       30.06S
WISCASSET      CLOUDY    63  59  87 VRB7      30.07S
ROCKLAND       CLOUDY    61  57  88 SW10G20   30.05F
FRYEBURG       CLOUDY    69  66  90 SE3       30.05R
LEWISTONAUBURN CLOUDY    70  63  78 S9        30.04S
AUGUSTA        CLOUDY    64  61  90 S6        30.03F
WATERVILLE       N/A    N/A N/A N/A MISG        N/A
BANGOR         CLOUDY    64  61  90 S6        30.02F
GREENVILLE       N/A     64  64 100 S6        30.00F
MILLINOCKET    CLOUDY    66  64  93 CALM      29.99F
HOULTON        CLOUDY    67  64  90 SW7       29.96R
PRESQUE ISLE   CLOUDY    66  63  88 SW12      29.92F
FRENCHVILLE    CLOUDY    65  64  97 S9        29.90F
CARIBOU        CLOUDY    66  64  93 S6        29.91F
$$

NHZ002-005-008-009-011-012-014-280500-
NEW HAMPSHIRE

CITY           SKY/WX    TMP DP  RH WIND       PRES   REMARKS
ROCHESTER      CLOUDY    74  64  71 S6        30.06S
NASHUA         CLOUDY    73  66  78 VRB7      30.10S
MANCHESTER     CLOUDY    72  64  76 S12       30.07S
CONCORD        CLOUDY    69  66  90 S6        30.07S
LACONIA        CLOUDY    66  63  88 SW7       30.04S
PLYMOUTH       FOG       66  66 100 CALM      30.06S VSB 1/4
BERLIN         CLOUDY    70  63  78 SW8G17    30.04S
WHITEFIELD     CLOUDY    64  63  96 CALM      30.05S
JAFFREY        CLOUDY    67  64  90 S12G18    30.10F
KEENE          CLOUDY    66  64  94 SW7       30.09S
LEBANON        MOCLDY    67  64  90 S3        30.07R
MT WASHINGTON  FOG       50  50 100 W47         N/A  VSB 0
$$

VTZ005-007-008-280500-
VERMONT

CITY           SKY/WX    TMP DP  RH WIND       PRES   REMARKS
MONTPELIER     PTCLDY    65  63  93 CALM      30.08S
BURLINGTON     CLEAR     70  64  81 S14       30.00R
$$

MAZ007-012-024-CTZ003-RIZ002-NYZ038-NYZ072-280500-
SOUTHERN NEW ENGLAND AND NY

CITY           SKY/WX    TMP DP  RH WIND       PRES   REMARKS
BOSTON         CLOUDY    70  63  78 SW14      30.12S
WORCESTER      CLOUDY    66  62  87 SW14      30.14S
NANTUCKET      CLEAR     61  58  90 S13       30.23F
PROVIDENCE     MOCLDY    66  59  78 S10       30.17S
HARTFORD       CLOUDY    67  63  87 S7        30.11F
ALBANY         MOCLDY    69  65  86 S7        30.08R
NEW YORK CITY  MOCLDY    68  61  78 S7        30.13F
$$

ANZ081-ANZ082-ANZ150-NHZ014-MEZ023>029-280500-
COASTAL MARINE OBSERVATIONS

STATION/POSITION TIME  TEMP    WIND        PRES    WAVE
                       AIR SEA DIR/SP/G            HT/PER
                 (UTC) (F)     (DEG/KT/KT) (MB)    (FT/S)
MOUNT DESERT ROC 0400   52     210/ 19/ 20   N/A
MATINICUS ROCK   0400   54     220/ 27/ 30   N/A
ISLE OF SHOALS   0400   65     180/ 23/ 23   N/A
JEFFREYS LEDGE   0303      49                N/A     5/ 6
CASHES LEDGE BUO 0350   56 50                N/A     6/ 6
GEORGES BANK BUO 0350   55 51  200/  8/ 10   N/A     3/ 5
$$

.............KEY..............
   WCI - WIND CHILL
   TC  - TEMPERATURE IN CELSIUS
   VSB - VISIBILITY IN MILES
   HX  - HEAT INDEX
   FAIR- INDICATES FEW OR NO CLOUDS BELOW 12,000 FT, WITH NO
         SIGNIFICANT WEATHER AND/OR OBSTRUCTIONS TO VISIBILITY.





USA.gov is the U.S. government's official web portal to all federal, state and local government web resources and services.